logo tempoitalia

Diretta Meteo Conway-Horry Cty, Stati Uniti (USA)lunedì 31 agosto ore 02:35

Mappa
Sereno 23 °C Sereno 24 Ore: T.min 22 T.max 30
Ponente Nord Km/h 5.5 Punto di rugiada: 23 °C Umidità: 100% Visibilità: 10 Km
Il sole sorge alle: 06:49 Il sole tramonta alle: 19:43
31 Agosto 2026 02:35 tempo osservato: Sereno Sereno 23 100 1019 vento: Nord N 5.5
31 Agosto 2026 02:15 tempo osservato: Sereno Sereno 23 100 1019 vento: Nord N 0
31 Agosto 2026 01:55 tempo osservato: Sereno Sereno 23 100 1020 vento: Nord N 0
31 Agosto 2026 01:35 tempo osservato: Sereno Sereno 23 100 1020 vento: Nord N 5.5
31 Agosto 2026 01:15 tempo osservato: Sereno Sereno 23 100 1020 vento: Nord N 0
31 Agosto 2026 00:55 tempo osservato: Sereno Sereno 22 100 1020 vento: Nord N 0
31 Agosto 2026 00:35 tempo osservato: Sereno Sereno 22 100 1020 vento: Nord N 0
31 Agosto 2026 00:15 tempo osservato: Sereno Sereno 22 100 1020 vento: Nord N 0
30 Agosto 2026 23:55 tempo osservato: Sereno Sereno 23 100 1020 vento: Nord N 0
30 Agosto 2026 23:35 tempo osservato: Sereno Sereno 23 100 1020 vento: Nord N 0
30 Agosto 2026 23:15 tempo osservato: Sereno Sereno 23 100 1020 vento: Nord N 0
30 Agosto 2026 22:55 tempo osservato: Sereno Sereno 23 100 1020 vento: Nord N 0
30 Agosto 2026 22:35 tempo osservato: Sereno Sereno 24 94 1020 vento: Nord N 0
30 Agosto 2026 22:15 tempo osservato: Sereno Sereno 23 100 1020 vento: Nord N 0
30 Agosto 2026 21:55 tempo osservato: Sereno Sereno 24 100 1020 vento: Nord N 0
30 Agosto 2026 21:35 tempo osservato: Sereno Sereno 24 100 1020 vento: Nord N 5.5
30 Agosto 2026 21:15 tempo osservato: Sereno Sereno 23 100 1020 vento: Nord N 0
30 Agosto 2026 20:55 tempo osservato: Sereno Sereno 23 100 1020 vento: Nord N 0
30 Agosto 2026 20:35 tempo osservato: Sereno Sereno 24 100 1019 vento: Nord N 0
30 Agosto 2026 20:15 tempo osservato: Sereno Sereno 25 94 1019 vento: Nord N 0
30 Agosto 2026 19:55 tempo osservato: Sereno Sereno 25 94 1019 vento: Nord N 0
30 Agosto 2026 19:35 tempo osservato: Sereno Sereno 25 94 1019 vento: Nord N 0
30 Agosto 2026 19:15 tempo osservato: Sereno Sereno 26 83 1019 vento: Nord N 5.5
30 Agosto 2026 18:55 tempo osservato: Sereno Sereno 26 83 1019 vento: Nord N 0
30 Agosto 2026 18:35 tempo osservato: Sereno Sereno 26 83 1019 vento: Nord N/NE 7.4
30 Agosto 2026 18:15 tempo osservato: Sereno Sereno 26 83 1020 vento: Nord N 7.4
30 Agosto 2026 17:55 tempo osservato: Sereno Sereno 26 83 1020 vento: Nord N 5.5
30 Agosto 2026 17:35 tempo osservato: Sereno Sereno 26 83 1020 vento: Nord N 0
30 Agosto 2026 17:15 tempo osservato: Sereno Sereno 27 78 1020 vento: Nord N 0
30 Agosto 2026 16:55 tempo osservato: Temporale nelle vicinanze Temporale nelle vicinanze 28 74 1020 vento: Nord N 5.5
30 Agosto 2026 16:35 tempo osservato: Sereno Sereno 28 74 1020 vento: Nord N 5.5
30 Agosto 2026 16:15 tempo osservato: Sereno Sereno 28 74 1020 vento: Nord N 5.5
30 Agosto 2026 15:50 tempo osservato: Sereno Sereno 28 74 1020 vento: Nord S/SE 7.4
30 Agosto 2026 15:35 tempo osservato: Sereno Sereno 28 74 1020 vento: Nord N 5.5
30 Agosto 2026 15:15 tempo osservato: Nuvoloso Nuvoloso 28 74 1020 vento: Nord N 5.5
30 Agosto 2026 14:55 tempo osservato: Sereno Sereno 29 70 1020 vento: Nord S/SE 9.3
30 Agosto 2026 14:35 tempo osservato: Sereno Sereno 30 62 1020 vento: Nord N 0
30 Agosto 2026 14:15 tempo osservato: Sereno Sereno 29 66 1020 vento: Nord N 5.5
30 Agosto 2026 13:55 tempo osservato: Sereno Sereno 30 62 1020 vento: Nord E 7.4
30 Agosto 2026 13:35 tempo osservato: Nuvoloso Nuvoloso 30 62 1021 vento: Nord N 0
30 Agosto 2026 13:15 tempo osservato: Nuvoloso Nuvoloso 30 62 1021 vento: Nord E 7.4
30 Agosto 2026 12:50 tempo osservato: Sereno Sereno 30 62 1021 vento: Nord E 7.4
30 Agosto 2026 12:35 tempo osservato: Sereno Sereno 29 66 1021 vento: Nord N 0
30 Agosto 2026 12:15 tempo osservato: Sereno Sereno 28 69 1022 vento: Nord E/NE 7.4
30 Agosto 2026 11:55 tempo osservato: Sereno Sereno 28 69 1022 vento: Nord N/NE 7.4
30 Agosto 2026 11:35 tempo osservato: Sereno Sereno 28 74 1022 vento: Nord N 7.4
30 Agosto 2026 11:15 tempo osservato: Sereno Sereno 27 83 1022 vento: Nord N 7.4
30 Agosto 2026 10:55 tempo osservato: Sereno Sereno 26 83 1022 vento: Nord N 5.5
30 Agosto 2026 10:35 tempo osservato: Sereno Sereno 26 88 1022 vento: Nord NE 9.3
30 Agosto 2026 10:15 tempo osservato: Sereno Sereno 26 88 1022 vento: Nord N/NE 9.3
30 Agosto 2026 09:55 tempo osservato: Sereno Sereno 25 88 1022 vento: Nord N 7.4
30 Agosto 2026 09:35 tempo osservato: Sereno Sereno 24 94 1022 vento: Nord N 5.5
30 Agosto 2026 09:15 tempo osservato: Sereno Sereno 23 100 1022 vento: Nord NE 7.4
30 Agosto 2026 08:55 tempo osservato: Sereno Sereno 23 100 1022 vento: Nord N 5.5
30 Agosto 2026 08:35 tempo osservato: Sereno Sereno 23 100 1021 vento: Nord N 5.5
30 Agosto 2026 08:15 tempo osservato: Sereno Sereno 22 100 1021 vento: Nord N 7.4
30 Agosto 2026 07:55 tempo osservato: Sereno Sereno 22 100 1021 vento: Nord N 0
30 Agosto 2026 07:35 tempo osservato: Pioggia Pioggia 22 100 1021 vento: Nord N 0
30 Agosto 2026 07:15 tempo osservato: Sereno Sereno 22 100 1021 vento: Nord N 0
30 Agosto 2026 06:55 tempo osservato: Sereno Sereno 22 100 1021 vento: Nord N 5.5
30 Agosto 2026 06:35 tempo osservato: Sereno Sereno 22 100 1021 vento: Nord N 5.5
30 Agosto 2026 06:15 tempo osservato: Nuvoloso Nuvoloso 22 100 1021 vento: Nord NE 7.4
30 Agosto 2026 05:55 tempo osservato: Foschia Foschia 22 100 1021 vento: Nord N/NE 7.4
30 Agosto 2026 05:35 tempo osservato: Sereno Sereno 22 100 1021 vento: Nord N 5.5
30 Agosto 2026 05:15 tempo osservato: Sereno Sereno 22 100 1021 vento: Nord N 5.5
30 Agosto 2026 04:55 tempo osservato: Temporale nelle vicinanze Temporale nelle vicinanze 22 100 1021 vento: Nord N/NO 7.4
30 Agosto 2026 04:35 tempo osservato: Sereno Sereno 22 100 1020 vento: Nord N 5.5
30 Agosto 2026 04:15 tempo osservato: Sereno Sereno 22 100 1020 vento: Nord N 0
30 Agosto 2026 03:55 tempo osservato: Sereno Sereno 22 100 1020 vento: Nord N 0
30 Agosto 2026 03:35 tempo osservato: Sereno Sereno 22 100 1021 vento: Nord N 5.5
30 Agosto 2026 03:15 tempo osservato: Sereno Sereno 22 100 1021 vento: Nord N/NE 7.4
30 Agosto 2026 02:55 tempo osservato: Temporale nelle vicinanze Temporale nelle vicinanze 22 100 1021 vento: Nord NE 7.4
30 Agosto 2026 02:35 tempo osservato: Sereno Sereno 22 100 1021 vento: Nord N/NE 7.4